Location: ?
(35.4064°N, 139.3593°E)
Time: 23:44:27
(UTC+00:00)

Tiangong - Pass Details

Date: 10 December 2025
Orbit: 378 x 394 km, 41.5° (Epoch: 15 January)

Event Time Altitude Azimuth Distance (km) Brightness Sun altitude
Exits shadow 19:41:06 35° 109° (ESE) 639 -0.5 -23.8°
Drops below altitude 10° 19:43:07 10° 112° (ESE) 1,414 1.8 -23.4°
Enters shadow 20:37:27 -72° 309° (NW) 12,564 5.4 -12.7°
